DELTA 1 DEB, 7043

Orbit data source: Space-Track

DELTA 1 DEB, 7043 is space debris in SSO originally from a launch on Tue, 06 Nov 1973 UTC launched from the Air Force Western Test Range (AFWTR). Debris objects in space refer to the collection of defunct objects orbiting the Earth. Examples of debris include non-operational satellites, rocket bodies, and fragments generated from explosions, collisions, or faulty payload assembly.

Loading next visibility...
Identifier
7043, 1973-086AK
Orbit
SSO
Country
Flag of USUS
Related business
Manufacturer
Unknown
Mission
Spacecraft
Bus & Motor
Unknown
Mass
Unknown
Launch date (UTC)
1973-11-06 (52 years ago)
Launch vehicle
Unknown
Launch site
Air Force Western Test Range (AFWTR)
Object type
Payload
Rocket body
Debris
Shape & HBR
Unknown shape, 0.2 m
Radar Cross Section
Small (<0.1 m²)

Expand to show TLE details & history
Last TLE update: 15 hours ago

TLE from 15 hours ago
0 DELTA 1 DEB
1 07043U 73086AK  25308.02392074  .00000069  00000-0  44818-3 0  9996
2 07043 102.1556 348.1415 0216442 331.4334  97.0276 12.85358827435655
Epoch: 2025-11-04T00:34Z
TLE epoch observation values (Epoch: 2025-11-04T00:34:26.751Z)
Latitude
67.5753°
Longitude
-95.27612°
Altitude
1,355.437 km
Speed
7.176 km/s
True Right ascension
21h 07m 24s
True Declination
67° 27' 47"
Sunlit
Object was in daylight at epoch
Visualization orbit readout
Latitude
Unknown
Longitude
Unknown
Altitude
Unknown
Speed
Unknown
Apparent Right ascension
Unknown
Apparent Declination
Unknown
Sunlit
N/A
Visualization observer readout
Local Sidereal Time
11:01:13
Azimuth
Unknown
Elevation
Unknown
Doppler factor
Unknown
Orbital elements
Apogee altitude
1,484.089 km
Perigee altitude
1,150.956 km
Semi-major axis
7,695.66 km
Eccentricity
0.02164
Inclination
102.1556°
RAAN
348.1415°
Arg. of periapsis
331.4334°
True anomaly
99.48034°
Mean anomaly
97.0276°
Eccentric anomaly
98.25487°
Mean motion
3.21495 °/min
Orbital period
111.98 mins
BSTAR
0.00044818
Loading maneuver chart data...
Computing Atmospheric mass density...
Loading historical data...
Loading historical data...
Loading historical data...
Loading historical data...
Loading historical data...
Loading historical data...
Loading historical data...

Documentation

Showing up to 5 results
|